Regional Weather Roundup
Issued by NWS

Home | Current Version | Previous Version | Text Only | Print | Product List | Glossary On
Versions: 1 2 3 4 5 6 7 8 9 10 11 12 13 14 15 16 17 18 19 20 21 22 23 24 25 26 27 28 29 30 31 32 33 34 35 36 37 38 39 40 41 42 43 44 45 46 47 48 49 50
000
ASUS43 KMKX 290004
RWRWI

WISCONSIN REGIONAL WEATHER ROUNDUP
NATIONAL WEATHER SERVICE MILWAUKEE/SULLIVAN WI
700 PM CDT THU MAY 28 2015

NOTE: "FAIR" INDICATES FEW OR NO CLOUDS BELOW 12,000 FEET WITH NO
SIGNIFICANT WEATHER AND/OR OBSTRUCTIONS TO VISIBILITY.

WIZ001-002-006>008-014>016-023>028-290100-
NORTHWEST WISCONSIN

CITY           SKY/WX    TMP DP  RH WIND       PRES   REMARKS
SUPERIOR ARPT  CLOUDY    42  40  96 NE9       29.98F
ASHLAND        SUNNY     55  48  77 N8        29.96F
6HR MIN TEMP:  55; 6HR MAX TEMP:  66;

HAYWARD        SUNNY     79  52  38 S18       29.95F
6HR MIN TEMP:  79; 6HR MAX TEMP:  85;

SIREN          MOSUNNY   81  51  35 S13G20    29.93F HX  80
CUMBERLAND     MOSUNNY   75  54  46 S18G24    29.96F
RICE LAKE      MOSUNNY   80  50  34 S17G25    29.98F
CHETEK         MOSUNNY   77  56  48 S7G17     29.97F
LADYSMITH      MOSUNNY   78  57  47 S9G17     30.01F
EAU CLAIRE     NOT AVBL
MENOMONIE      MOSUNNY   79  55  43 S13       29.98F
NEW RICHMOND   MOSUNNY   76  53  44 S15       29.95F
OSCEOLA        MOSUNNY   80  51  36 S17G24    29.96F HX  80
$$

WIZ003>005-009-010-017-018-290100-
NORTH CENTRAL WISCONSIN

CITY           SKY/WX    TMP DP  RH WIND       PRES   REMARKS
MANITOWISH WTR PTSUNNY   79  52  38 S10       30.00F
ARBOR VITAE    MOSUNNY   78  55  45 SW12      30.02F
WOODRUFF       MOSUNNY   78  55  45 SW12      30.02F
RHINELANDER    SUNNY     77  52  41 SW12      30.04F
6HR MIN TEMP:  73; 6HR MAX TEMP:  82; 6HR PCP: TRACE;

EAGLE RIVER    MOSUNNY   78  48  34 SW10G17   30.03F
LAND O LAKES   MOSUNNY   79  46  31 S8        30.03F
PHILLIPS       MOSUNNY   78  54  42 SW14G20   30.00F
TOMAHAWK       MOSUNNY   76  53  44 S3        30.04F
MEDFORD        MOSUNNY   75  58  55 S13       30.04F
MERRILL        MOSUNNY   78  56  45 S9G21     30.05S
$$

WIZ029-030-035-036-043>047-290100-
CENTRAL WISCONSIN

CITY           SKY/WX    TMP DP  RH WIND       PRES   REMARKS
WAUSAU         PTSUNNY   77  55  46 SW13      30.03F
6HR MIN TEMP:  77; 6HR MAX TEMP:  83;

MOSINEE        MOSUNNY   77  55  47 S12       30.06F
MARSHFIELD     MOSUNNY   77  53  43 S13       30.03F
6HR MIN TEMP:  77; 6HR MAX TEMP:  83;

STEVENS POINT  MOSUNNY   78  54  44 S14G23    30.06S
WAUPACA        MOSUNNY   82  56  40 S10G18    30.06F HX  81
WAUTOMA        NOT AVBL
WISC RAPIDS    MOSUNNY   79  51  37 SW12      30.06S
6HR MIN TEMP:  79; 6HR MAX TEMP:  85;

CAMP DOUGLAS   NOT AVBL
$$

WIZ011>013-019>022-031-037>040-048>050-290100-
NORTHEAST WISCONSIN

CITY           SKY/WX    TMP DP  RH WIND       PRES   REMARKS
ANTIGO         PTSUNNY   73  58  60 S10       30.07S
SHAWANO        MOSUNNY   81  56  41 S5        30.06S HX  81
OCONTO         MOSUNNY   74  62  65 S8        30.06F
STURGEON BAY   MOSUNNY   70  55  60 S14       30.11F
6HR MIN TEMP:  70; 6HR MAX TEMP:  73;

GREEN BAY      MOSUNNY   78  61  55 S17       30.07F HX  80
6HR MIN TEMP:  78; 6HR MAX TEMP:  83;

MANITOWOC      NOT AVBL
APPLETON       MOSUNNY   79  54  41 S14       30.09S
CLINTONVILLE   MOSUNNY   79  55  44 S10G17    30.06S
OSHKOSH        MOSUNNY   77  57  50 S9        30.08S
6HR MIN TEMP:  77; 6HR MAX TEMP:  82;

$$

WIZ032>034-041-042-053>061-290100-
SOUTHWEST WISCONSIN

CITY           SKY/WX    TMP DP  RH WIND       PRES   REMARKS
LA CROSSE      MOSUNNY   81  54  39 S14G23    30.01S HX  81
6HR MIN TEMP:  80; 6HR MAX TEMP:  85;

SPARTA         MOSUNNY   79  47  32 S12       30.05S
VIROQUA        MOSUNNY   78  54  42 S13       30.06S
BOSCOBEL       MOSUNNY   80  52  37 S6        30.04F HX  80
6HR MIN TEMP:  80; 6HR MAX TEMP:  84;

PRAIRIE DU CHI MOSUNNY   80  47  31 SE13      30.03S
PLATTEVILLE    MOSUNNY   80  53  39 SE12      30.07S HX  80
$$

WIZ056-057-062-063-064-067-068-290100-
SOUTH CENTRAL WISCONSIN

CITY           SKY/WX    TMP DP  RH WIND       PRES   REMARKS
REEDSBURG      SUNNY     78  55  45 S6        30.06F
BARABOO/DELLS  SUNNY     77  51  39 S10       30.07F
LONE ROCK      NOT AVBL
MINERAL POINT  MOSUNNY   77  52  41 S7        30.08S
MADISON        PTSUNNY   80  51  36 S14       30.07F HX  80
6HR MIN TEMP:  80; 6HR MAX TEMP:  82;

MIDDLETON      MOSUNNY   82  47  29 S10       30.08F HX  80
WATERTOWN      PTSUNNY  N/A N/A N/A SE8       30.09S
MONROE         MOSUNNY   79  54  41 SE13      30.08F
JANESVILLE     MOSUNNY   81  52  36 SE10      30.08F HX  80
$$

WIZ051-052-058>065-066-070>072-290100-
SOUTHEAST WISCONSIN

CITY           SKY/WX    TMP DP  RH WIND       PRES   REMARKS
MILWAUKEE      PTSUNNY   72  55  55 SE10      30.12S
6HR MIN TEMP:  72; 6HR MAX TEMP:  78;

WAUKESHA       SUNNY     75  48  38 SE12      30.12F
MILWAUKEE/TIMM SUNNY     79  45  29 SE9       30.12F
RACINE         SUNNY     71  55  56 SE8       30.14F
6HR MIN TEMP:  71; 6HR MAX TEMP:  76;

BURLINGTON     MOSUNNY   76  51  40 SE10G16   30.11S
KENOSHA        SUNNY     73  56  54 E10       30.12F
6HR MIN TEMP:  73; 6HR MAX TEMP:  79;

FOND DU LAC    MOSUNNY   79  56  45 S9        30.08F HX  80
6HR MIN TEMP:  79; 6HR MAX TEMP:  82;

SHEBOYGAN      MOSUNNY   72  55  55 S7        30.11F
6HR MIN TEMP:  72; 6HR MAX TEMP:  81;

WEST BEND      PTSUNNY   77  52  41 SE8       30.11S
JUNEAU         PTSUNNY   78  55  45 S9        30.11S
$$

LSZ147-162-290100-
LAKE SUPERIOR

STATION/POSITION TIME  TEMP    WIND        PRES    WAVE
                       AIR SEA DIR/SP/G            HT/PER
                 (UTC) (F)     (DEG/KT/KT) (MB)    (FT/S)
W MID LAKE BUOY  2250   38 37   40/ 14/ 17   N/A     3/ 5
DEVILS ISLAND    2300   39      60/  9/ 10   N/A
PORT WING        2340   40      30/ 14/ 17   N/A
SAXON HARBOR     2300   46        CALM       N/A
$$

LMZ867-665-643>646-290100-
LAKE MICHIGAN

STATION/POSITION TIME  TEMP    WIND        PRES    WAVE
                       AIR SEA DIR/SP/G            HT/PER
                 (UTC) (F)     (DEG/KT/KT) (MB)    (FT/S)
CHAMBERS ISLAND  2200   74     150/  8/ 15   N/A
N MID LAKE BUOY  2250   42 37  170/  8/ 10   N/A     1
NORTHPORT PIER   2300   57     150/  9/ 15   N/A
SISTER BAY       2248   70     180/ 16/ 21   N/A
ALGOMA LAKESHORE 2338          210/ 12/ 15   N/A
KEWAUNEE LAKESHO 2300   52     180/ 13/ 15   N/A
SHEBOYGAN LAKESH 2300   62     170/ 18/ 19   N/A
PORT WASHINGTON  2300   60     200/  4/  7   N/A
ATWATER BUOY     2300   55     170/  6/  8   N/A
MILWAUKEE LAKESH 2300   58     140/ 12/ 13   N/A
S MID LAKE BUOY  2250   59 39   70/  6/  6   N/A     0
KENOSHA   LAKESH 2300   60      50/  1/  2   N/A
$$

TC  - TEMPERATURE IN CELSIUS
VSB - VISIBILITY IN STATUTE MILES
WCI - WIND CHILL INDEX
HX  - HEAT INDEX




USA.gov is the U.S. government's official web portal to all federal, state and local government web resources and services.